Temp
12 12 12 12 13 13 13 13 13 14 14 14 14 14 15 15 15 16 16 16 16 16 17 16 16 16 16 16 18 19 21 21 20 19 20 19 17 18 17 17 19 19 20 21 22 23 23
12 12 12 12 12 13 13 13 13 13 14 14 14 15 15 15 15 16 16 16 16 16 17 16 16 15 14 14 17 17 19 20 20 19 19 20 18 19 19 18 18 21 21 21 22 22 23
12 12 12 12 12 12 12 12 13 13 13 14 14 14 15 15 15 16 16 16 16 16 16 16 15 14 13 15 16 17 17 17 19 20 19 19 20 20 20 20 21 21 21 22 22 23 22
11 11 11 12 12 12 12 12 12 12 13 13 13 14 15 15 15 16 16 15 16 16 16 15 16 13 15 17 17 17 18 18 18 18 18 18 19 20 20 20 21 20 21 19 22 23 24
11 11 11 11 12 11 11 12 12 12 12 13 13 14 15 15 15 16 15 16 16 15 15 15 14 12 17 17 17 18 18 19 18 17 17 18 18 19 20 19 17 17 18 19 22 23 25
11 11 11 11 11 11 11 12 12 12 13 13 13 14 15 15 15 15 15 16 16 15 15 15 14 13 17 15 16 17 18 17 17 17 16 17 18 15 13 15 15 17 19 20 22 24 23
11 11 11 11 11 11 11 12 12 12 13 13 13 13 14 14 15 14 15 15 15 14 15 13 14 15 15 16 16 16 18 17 17 16 14 16 14 16 17 17 18 19 20 21 22 24 23
11 11 11 11 11 11 11 11 12 12 12 12 13 13 14 14 14 13 13 13 11 10 10 15 15 15 15 15 15 16 17 17 17 15 15 14 14 17 18 17 18 18 19 20 22 24 23
10 10 10 10 10 11 11 11 11 11 12 13 13 13 14 14 14 13 13 12 12 13 10 14 15 15 15 15 15 14 15 16 16 16 15 14 16 18 18 17 17 17 17 19 21 23 24
10 10 10 10 10 10 10 11 11 12 12 13 13 13 14 14 14 13 13 12 12 13 8 13 14 14 14 15 14 14 15 14 16 17 16 15 18 19 18 18 17 15 19 20 21 21 20
10 10 9 10 10 10 10 11 11 11 11 12 13 13 13 13 13 13 12 12 13 13 11 14 13 14 14 14 14 13 14 14 13 14 15 16 18 18 18 18 18 18 19 19 20 20 21
10 9 9 9 10 9 10 10 10 11 11 12 13 13 13 13 13 13 13 13 13 10 11 13 13 12 11 12 13 12 13 13 12 11 13 15 18 18 19 20 20 20 20 18 19 17 18
9 9 9 9 9 9 9 9 9 10 10 11 12 12 12 12 12 13 13 13 9 9 12 11 11 10 11 10 10 10 10 7 7 10 8 11 15 18 20 18 19 19 19 15 15 16 19
9 9 8 8 8 8 8 9 9 9 10 11 12 12 11 12 12 13 13 9 10 11 11 11 11 10 10 9 9 9 9 8 7 7 7 7 13 17 18 18 18 19 18 14 15 15 19
9 8 8 8 8 8 8 8 8 9 9 10 12 13 11 11 12 13 13 7 8 10 10 10 10 9 9 9 10 8 7 8 7 7 7 6 8 11 14 17 20 18 18 18 16 15 16
8 8 8 8 8 8 7 7 7 8 8 9 11 11 10 11 12 12 8 7 8 10 10 10 9 9 8 9 9 8 8 9 6 7 7 7 7 9 12 15 18 19 19 18 15 17 16
7 7 8 8 8 7 7 6 6 7 8 9 10 10 10 11 11 11 6 6 9 10 11 9 8 8 8 8 7 7 8 9 9 7 7 6 6 9 10 13 17 18 19 19 19 15 18
7 8 7 7 7 7 7 6 6 6 7 8 7 4 9 10 7 3 3 4 8 9 10 9 9 8 8 7 7 7 7 9 7 7 6 7 6 7 9 12 13 11 17 17 20 17 14
7 7 7 7 7 7 6 6 6 6 6 5 4 5 8 9 3 1 2 4 6 9 8 9 9 8 8 7 7 7 8 9 7 6 6 5 5 7 8 13 12 14 17 18 16 19 19
7 7 7 7 7 6 6 6 6 5 5 5 4 2 6 6 4 2 2 3 6 9 9 8 8 8 7 7 6 7 7 8 6 7 8 6 5 6 7 10 8 8 11 17 16 20 20
7 7 7 7 7 6 6 6 6 4 4 4 4 1 2 1 2 2 3 3 4 6 7 7 7 6 5 5 6 5 6 7 6 7 6 4 5 6 6 6 7 8 9 11 12 16 20
7 7 7 7 7 6 6 6 4 3 3 4 4 3 3 3 3 3 3 3 4 5 4 5 4 6 5 4 5 5 6 5 6 5 5 4 4 6 5 7 8 8 11 12 13 15 18
7 7 7 7 7 6 6 6 4 3 3 3 3 3 2 3 4 4 4 4 4 4 3 4 5 4 4 5 6 6 6 6 5 4 4 4 4 4 4 9 10 10 12 14 14 13 14
8 8 7 7 7 7 7 6 4 3 3 3 3 3 2 3 3 4 4 3 4 4 4 3 3 3 4 6 6 5 4 4 5 5 5 4 4 4 5 7 13 12 13 15 14 14 14
8 8 8 8 8 8 8 7 5 3 3 3 3 3 3 2 3 3 4 4 3 3 3 4 4 5 5 4 3 2 3 4 4 6 7 5 4 5 5 8 13 13 11 10 11 13 13
8 8 9 9 8 8 7 6 4 4 3 3 3 3 3 2 3 3 3 3 3 3 3 4 4 5 5 3 3 4 4 5 6 5 6 5 4 4 6 8 13 10 10 10 12 12 12
9 9 9 9 8 8 7 5 4 3 4 4 3 3 3 3 3 3 4 3 3 2 2 2 4 4 5 3 4 4 4 3 5 6 5 5 4 4 6 8 10 9 9 11 13 10 10
9 9 9 9 9 8 8 6 4 3 4 4 4 4 3 4 4 4 3 3 3 3 2 4 3 4 3 4 4 3 4 4 5 4 5 6 6 8 8 11 11 8 9 9 9 9 9
9 9 9 9 9 9 8 7 4 4 4 4 4 4 4 3 4 5 4 4 4 4 4 2 3 3 3 3 3 3 4 4 4 6 5 5 5 5 5 7 6 7 6 6 7 8 8
Height
1557 1555 1552 1550 1547 1544 1541 1538 1534 1530 1527 1523 1518 1513 1508 1503 1499 1495 1492 1488 1484 1480 1475 1473 1471 1469 1467 1465 1464 1462 1461 1462 1464 1470 1473 1477 1482 1486 1490 1492 1493 1493 1491 1491 1489 1491 1492
1560 1557 1554 1551 1548 1545 1542 1538 1534 1530 1526 1522 1518 1513 1507 1502 1497 1493 1490 1486 1482 1478 1473 1470 1468 1466 1465 1466 1464 1463 1461 1463 1463 1467 1472 1476 1480 1484 1486 1488 1490 1486 1488 1491 1490 1489 1490
1561 1558 1554 1551 1548 1545 1541 1538 1534 1529 1525 1520 1515 1511 1507 1501 1495 1491 1488 1484 1480 1476 1472 1469 1464 1462 1463 1466 1464 1464 1463 1463 1465 1466 1471 1476 1480 1484 1484 1487 1487 1488 1491 1488 1487 1483 1486
1561 1559 1555 1552 1549 1545 1541 1537 1533 1529 1524 1519 1513 1509 1505 1499 1493 1488 1485 1481 1477 1474 1472 1467 1464 1461 1463 1464 1465 1465 1463 1462 1464 1468 1474 1478 1483 1484 1485 1484 1483 1487 1490 1499 1481 1481 1481
1563 1560 1556 1553 1549 1545 1541 1537 1532 1527 1523 1518 1512 1506 1503 1498 1492 1486 1482 1478 1474 1472 1470 1466 1465 1462 1467 1466 1463 1462 1462 1462 1464 1470 1476 1480 1483 1485 1485 1488 1496 1493 1500 1495 1485 1477 1479
1564 1560 1556 1553 1549 1545 1541 1537 1532 1527 1521 1516 1510 1504 1500 1495 1489 1484 1479 1476 1472 1472 1469 1467 1466 1467 1468 1469 1465 1463 1462 1460 1464 1470 1478 1480 1482 1485 1488 1494 1510 1500 1496 1487 1484 1475 1477
1564 1560 1557 1553 1549 1545 1541 1536 1530 1526 1521 1515 1508 1502 1497 1492 1487 1483 1479 1475 1476 1475 1473 1476 1476 1475 1473 1471 1468 1464 1462 1463 1465 1470 1476 1477 1485 1479 1469 1481 1484 1486 1486 1487 1477 1471 1477
1565 1561 1557 1553 1549 1545 1540 1535 1530 1525 1518 1511 1504 1498 1493 1489 1486 1484 1480 1478 1484 1487 1480 1477 1476 1475 1473 1471 1469 1465 1463 1464 1466 1471 1473 1480 1479 1471 1477 1482 1485 1486 1488 1488 1479 1470 1475
1564 1560 1556 1552 1548 1544 1539 1534 1528 1522 1516 1511 1504 1497 1492 1488 1486 1486 1484 1483 1484 1482 1483 1477 1476 1475 1474 1471 1473 1471 1467 1464 1463 1469 1472 1478 1471 1471 1476 1480 1486 1487 1490 1487 1483 1475 1471
1563 1559 1555 1551 1547 1542 1537 1532 1526 1520 1514 1509 1503 1497 1491 1488 1489 1487 1485 1483 1482 1481 1492 1481 1477 1478 1477 1471 1473 1475 1469 1469 1465 1464 1466 1470 1464 1467 1471 1475 1479 1494 1479 1481 1483 1487 1498
1562 1558 1553 1549 1545 1540 1535 1530 1524 1519 1513 1508 1502 1495 1491 1487 1488 1487 1487 1482 1480 1480 1498 1479 1481 1481 1479 1478 1478 1475 1473 1468 1469 1468 1467 1467 1461 1465 1470 1467 1473 1473 1474 1481 1483 1489 1487
1561 1556 1552 1548 1543 1538 1533 1528 1522 1517 1511 1505 1500 1494 1489 1489 1486 1486 1483 1481 1481 1490 1494 1482 1482 1482 1480 1479 1478 1477 1475 1471 1470 1469 1464 1461 1456 1459 1459 1459 1465 1465 1472 1478 1483 1492 1496
1559 1554 1550 1546 1541 1536 1530 1525 1520 1514 1508 1502 1498 1492 1490 1488 1485 1484 1482 1480 1492 1495 1480 1486 1485 1483 1483 1484 1483 1481 1481 1481 1486 1482 1484 1471 1457 1450 1456 1463 1459 1465 1477 1508 1512 1507 1479
1556 1552 1548 1544 1539 1533 1528 1523 1517 1512 1506 1499 1495 1491 1489 1486 1484 1482 1480 1483 1489 1482 1482 1483 1484 1484 1487 1486 1486 1484 1483 1487 1489 1490 1493 1495 1470 1449 1447 1453 1459 1459 1466 1491 1508 1501 1476
1554 1550 1546 1541 1536 1532 1526 1521 1515 1510 1504 1496 1490 1487 1486 1484 1483 1482 1481 1494 1489 1485 1484 1483 1484 1487 1489 1486 1486 1488 1489 1489 1492 1492 1498 1499 1483 1462 1452 1447 1449 1457 1460 1457 1477 1479 1485
1550 1547 1543 1539 1535 1530 1525 1520 1514 1508 1501 1495 1488 1483 1484 1482 1481 1481 1483 1489 1485 1482 1482 1482 1487 1486 1490 1488 1489 1488 1487 1487 1492 1492 1493 1497 1492 1470 1455 1447 1438 1441 1441 1465 1472 1479 1487
1548 1545 1541 1537 1533 1529 1523 1519 1513 1506 1501 1494 1487 1484 1484 1481 1478 1478 1488 1489 1482 1480 1480 1481 1484 1485 1486 1485 1486 1489 1486 1486 1485 1490 1492 1497 1498 1475 1468 1447 1435 1440 1438 1438 1443 1460 1459
1545 1542 1539 1535 1531 1527 1522 1517 1512 1506 1501 1495 1489 1488 1484 1481 1482 1488 1493 1491 1485 1480 1479 1479 1479 1481 1482 1483 1484 1485 1484 1480 1481 1486 1492 1494 1497 1485 1466 1440 1437 1445 1431 1432 1437 1452 1459
1542 1540 1537 1534 1530 1526 1521 1516 1512 1507 1502 1497 1493 1490 1488 1483 1496 1498 1494 1490 1486 1482 1480 1478 1477 1476 1476 1479 1483 1481 1478 1477 1480 1485 1490 1495 1494 1478 1460 1436 1429 1434 1423 1422 1427 1424 1433
1542 1538 1535 1532 1528 1524 1519 1515 1511 1507 1503 1501 1498 1497 1492 1491 1497 1499 1498 1493 1487 1482 1481 1480 1477 1475 1476 1477 1479 1478 1478 1477 1479 1483 1485 1491 1487 1481 1467 1445 1453 1450 1439 1420 1425 1423 1423
1539 1536 1533 1530 1526 1522 1518 1513 1509 1506 1503 1502 1501 1502 1502 1502 1500 1501 1500 1496 1490 1484 1482 1482 1478 1477 1481 1482 1479 1480 1477 1476 1480 1480 1484 1489 1479 1477 1466 1461 1459 1455 1445 1435 1435 1422 1416
1537 1534 1531 1527 1523 1519 1515 1511 1507 1505 1503 1503 1503 1503 1503 1501 1500 1500 1498 1495 1491 1488 1488 1482 1480 1475 1480 1481 1478 1477 1475 1474 1473 1476 1480 1484 1478 1470 1462 1450 1446 1446 1431 1427 1425 1418 1413
1535 1532 1528 1524 1520 1515 1511 1508 1505 1503 1503 1503 1503 1502 1502 1501 1499 1498 1496 1492 1488 1487 1481 1478 1475 1475 1474 1472 1470 1468 1467 1468 1468 1469 1474 1479 1476 1469 1458 1432 1432 1438 1421 1413 1414 1416 1414
1533 1529 1525 1520 1516 1512 1508 1505 1503 1502 1502 1502 1502 1502 1501 1499 1498 1495 1492 1490 1486 1483 1479 1476 1474 1473 1469 1466 1462 1457 1456 1456 1458 1458 1461 1467 1471 1469 1455 1438 1418 1413 1407 1403 1410 1414 1415
1531 1526 1522 1517 1513 1510 1506 1504 1501 1500 1500 1500 1500 1501 1500 1499 1496 1493 1489 1487 1484 1480 1477 1473 1471 1469 1465 1461 1459 1457 1451 1448 1446 1445 1451 1456 1466 1461 1454 1430 1404 1407 1414 1417 1416 1418 1418
1528 1523 1519 1515 1512 1508 1504 1501 1499 1499 1498 1498 1498 1499 1499 1498 1494 1491 1488 1485 1483 1480 1477 1473 1466 1461 1460 1458 1455 1447 1447 1439 1439 1443 1446 1456 1460 1458 1446 1428 1402 1419 1415 1412 1409 1425 1419
1526 1521 1517 1513 1509 1505 1501 1499 1498 1497 1498 1498 1497 1498 1498 1496 1492 1490 1487 1485 1483 1482 1481 1476 1468 1462 1459 1458 1451 1445 1439 1440 1433 1434 1442 1448 1449 1447 1441 1424 1412 1419 1411 1404 1413 1438 1427
1525 1520 1516 1511 1507 1503 1499 1497 1496 1496 1497 1498 1498 1497 1497 1495 1492 1490 1488 1485 1483 1481 1480 1476 1470 1466 1462 1457 1453 1449 1442 1440 1437 1442 1441 1440 1435 1424 1422 1409 1411 1417 1409 1419 1436 1434 1429
1524 1519 1515 1510 1505 1502 1499 1497 1496 1496 1497 1498 1498 1497 1497 1497 1494 1490 1488 1485 1483 1483 1479 1477 1475 1471 1467 1464 1461 1456 1449 1449 1445 1440 1443 1441 1443 1440 1438 1431 1434 1430 1431 1436 1436 1436 1430
Wind_Speed
17 17 18 19 20 22 23 25 26 28 28 28 29 29 26 24 24 23 19 20 21 23 28 18 17 17 11 5 5 9 10 5 32 32 31 30 35 14 7 9 6 12 6 6 16 11 13
17 17 18 18 20 21 23 25 27 27 28 29 30 30 29 28 27 25 21 20 23 25 25 19 20 25 6 2 3 11 5 2 32 36 32 32 21 18 11 6 10 8 20 13 14 19 14
18 18 18 19 20 22 23 25 26 28 29 30 31 31 30 30 29 26 21 20 23 25 18 18 25 11 2 4 2 9 14 4 24 36 35 32 4 23 6 2 13 17 6 4 7 8 5
16 17 18 19 20 22 24 26 28 28 29 29 31 31 30 31 31 27 21 20 23 21 15 21 16 12 5 12 14 10 15 6 12 34 24 31 18 21 5 3 2 6 5 1 3 7 7
17 17 18 19 21 22 24 26 28 29 30 31 31 32 30 29 30 26 21 22 21 11 19 11 17 7 6 13 23 13 13 2 7 28 24 10 21 3 6 1 4 5 4 6 3 10 3
17 18 20 21 22 24 25 26 26 29 31 32 32 33 32 31 29 22 22 22 14 6 18 8 17 5 18 24 16 17 12 5 13 18 17 4 8 2 2 5 6 6 4 4 4 4 7
18 19 20 21 22 23 24 26 28 29 29 30 33 35 34 32 25 16 20 11 9 2 10 7 7 1 21 25 11 27 12 10 9 13 7 8 4 17 27 9 3 3 4 6 4 5 5
19 20 20 21 22 24 26 27 28 29 32 34 35 36 36 29 15 13 16 11 13 11 8 3 12 11 23 20 7 33 20 5 5 4 5 3 12 12 5 6 6 5 3 4 4 3 6
20 21 21 22 23 25 26 28 30 33 33 32 33 35 34 21 7 11 12 15 19 8 1 6 2 14 29 8 6 26 24 6 3 4 7 6 6 11 9 6 10 12 10 6 2 3 5
21 22 23 23 24 26 28 30 32 32 32 31 31 33 30 15 4 11 10 17 18 0 4 4 6 9 22 4 6 13 25 6 3 3 7 7 15 6 10 15 11 10 11 15 8 2 3
22 22 23 24 25 27 29 31 32 32 32 30 29 31 19 9 6 10 12 20 8 4 3 3 4 7 11 8 8 14 19 7 3 5 2 6 4 11 11 17 12 12 7 12 12 4 2
24 24 24 25 26 28 30 31 32 33 32 31 28 27 14 5 6 11 16 17 6 5 4 1 3 4 5 8 4 10 9 8 2 3 2 7 8 4 11 14 17 5 2 5 3 3 11
25 25 25 25 26 28 30 31 32 32 32 31 27 21 9 8 14 13 16 4 4 4 3 2 2 4 3 5 6 7 5 11 5 7 7 8 5 5 13 4 14 10 11 1 3 5 14
24 25 25 26 26 27 29 30 31 32 32 31 26 19 5 9 11 12 14 4 3 2 1 1 2 1 3 4 3 6 4 3 12 6 2 4 6 5 7 14 8 15 12 6 8 5 13
25 25 26 25 26 26 28 29 31 32 32 32 28 17 4 9 9 11 7 3 4 1 2 2 3 3 3 3 2 3 5 3 3 5 4 5 6 11 9 5 13 6 18 10 4 1 2
22 23 24 25 26 26 28 30 31 31 32 32 30 18 2 13 11 10 4 4 4 1 1 3 3 2 2 2 1 2 1 2 6 6 7 3 8 7 11 8 12 16 9 11 4 9 5
19 20 22 24 25 26 27 28 29 31 32 30 20 6 10 17 11 1 3 4 4 4 0 6 6 4 6 3 5 4 4 2 4 6 4 4 5 9 11 7 14 10 14 10 7 6 9
17 20 22 23 24 25 26 26 28 30 30 29 13 3 14 13 6 4 2 5 7 2 2 3 4 6 6 6 3 5 7 5 12 9 3 2 4 7 9 18 9 7 6 10 12 17 3
15 18 20 22 24 25 26 26 26 25 26 26 18 6 12 11 4 4 6 5 4 3 3 2 3 6 4 5 2 5 4 7 14 7 6 7 4 6 7 10 4 5 8 9 3 6 19
16 19 20 21 23 25 26 25 24 22 19 18 8 4 7 11 7 3 5 4 5 7 2 6 4 1 2 1 3 3 4 6 14 9 7 7 6 9 7 4 6 7 12 7 3 8 11
17 19 21 22 24 26 26 24 22 19 15 12 6 2 3 4 4 3 4 4 7 5 5 8 3 4 4 3 2 4 5 3 8 10 6 3 7 12 21 21 17 17 16 14 5 7 11
18 20 22 25 26 26 26 23 18 14 12 6 4 3 2 5 5 6 2 2 5 6 2 5 7 8 7 4 6 8 6 5 7 7 7 5 5 6 11 17 18 19 17 17 14 8 8
20 23 25 27 27 27 24 20 14 10 8 4 2 4 2 3 2 3 1 4 7 11 8 20 9 6 8 14 17 20 20 18 11 9 12 6 3 3 6 5 10 8 11 5 7 10 2
23 26 27 27 26 23 21 17 13 7 8 6 7 6 1 3 3 3 6 17 14 14 8 13 16 8 7 15 27 20 24 24 20 15 17 7 5 3 6 4 10 6 4 14 17 15 14
25 27 27 25 22 21 19 16 13 7 7 8 9 5 3 2 5 10 10 10 14 17 8 6 10 14 19 10 3 5 2 4 9 16 16 10 4 4 3 4 9 3 6 5 5 10 18
26 25 23 22 22 21 20 17 12 7 6 6 8 6 7 3 2 9 8 10 4 4 4 5 17 14 6 2 3 3 2 1 3 3 9 6 7 3 2 6 5 4 11 12 6 5 19
24 22 23 24 24 22 19 14 8 5 4 4 5 3 5 4 7 8 3 4 4 3 3 7 14 8 6 3 2 2 2 3 4 3 5 4 4 13 11 5 3 12 14 9 4 2 19
21 22 24 25 25 21 15 9 6 3 2 2 3 4 5 4 10 8 14 9 9 3 2 8 7 3 4 3 3 3 2 5 3 3 1 1 3 1 3 4 4 24 5 7 2 9 14
20 23 25 25 20 14 13 10 5 4 5 4 4 3 3 9 6 10 9 13 7 10 5 4 4 5 3 3 3 3 3 4 7 2 6 3 3 2 4 4 11 13 17 13 11 7 19
Wind_Direction
35 33 32 30 28 26 22 16 13 10 9 7 6 6 2 354 350 347 345 340 341 338 334 331 354 352 316 283 272 311 281 348 178 185 182 173 168 164 176 190 162 225 261 269 253 253 263
33 31 29 27 23 20 15 11 7 3 0 359 360 2 3 356 350 347 345 338 338 337 335 334 330 335 290 274 344 0 312 247 187 184 183 186 187 179 180 187 195 204 227 254 281 268 263
28 26 23 21 18 14 10 6 3 0 359 356 354 356 357 354 349 347 346 339 337 336 340 342 333 354 23 1 351 18 19 306 201 193 191 195 199 187 172 132 231 243 294 317 249 258 241
24 21 19 16 13 9 6 5 3 0 357 357 352 354 354 350 349 348 347 341 335 335 346 340 358 9 61 50 29 349 351 325 211 197 193 199 194 198 195 298 337 171 155 183 227 195 245
16 15 13 10 7 6 5 4 2 358 357 356 351 347 349 346 346 344 345 341 332 348 352 15 10 55 28 3 351 7 10 273 215 195 187 199 203 240 240 357 8 352 184 195 284 184 178
10 9 6 2 2 4 3 0 357 355 355 354 350 347 347 345 346 344 343 344 341 29 15 27 13 6 10 345 17 29 21 148 173 183 198 179 181 143 19 148 209 192 184 243 189 205 185
3 1 359 357 359 357 356 356 356 353 349 350 348 348 348 348 349 354 351 357 7 355 27 20 354 91 343 355 19 13 24 146 140 149 163 187 154 206 214 205 256 193 211 189 226 228 139
356 355 355 354 352 352 353 352 348 347 350 352 349 348 346 350 353 14 24 60 36 342 316 18 62 25 356 354 357 16 26 107 177 173 136 121 226 228 171 192 223 251 267 256 273 207 175
352 351 351 350 347 346 346 347 346 346 347 348 347 345 345 353 24 16 35 29 0 2 360 307 11 18 7 3 51 13 11 344 141 176 198 179 237 178 186 182 202 230 235 230 157 332 213
347 346 345 344 343 342 342 343 343 343 344 345 345 343 346 1 27 14 13 357 344 124 63 291 5 22 12 34 48 10 20 4 317 215 194 223 246 216 201 209 183 227 202 249 268 357 221
339 338 338 338 339 339 339 340 339 342 342 344 345 342 351 3 336 0 345 346 338 151 349 64 19 27 37 56 307 357 19 1 351 298 51 229 216 205 228 219 188 237 161 214 239 213 272
336 333 333 334 335 334 335 337 337 341 342 344 348 345 352 351 1 339 340 342 143 50 233 57 70 345 23 357 33 334 7 25 90 324 241 235 245 181 239 219 208 201 151 164 130 167 245
334 332 333 334 333 333 336 337 338 339 342 342 347 347 342 7 351 337 347 360 40 151 345 93 336 356 62 335 15 357 36 42 46 19 14 329 258 170 235 299 200 177 172 254 219 208 236
333 333 333 335 335 336 338 338 338 342 344 340 342 341 305 355 344 331 353 52 198 84 74 100 50 317 81 357 62 4 15 78 40 43 9 21 311 182 172 201 208 205 188 170 192 210 235
331 334 336 338 337 341 342 339 340 343 344 341 339 336 243 343 337 348 7 44 208 182 284 22 11 86 336 358 79 17 10 108 82 53 59 344 262 329 277 294 206 209 209 184 116 242 203
327 331 336 337 339 343 341 341 344 345 348 346 342 339 56 340 313 324 78 221 201 227 328 75 151 214 223 256 136 59 339 183 125 118 109 9 300 271 295 297 252 215 164 206 207 213 242
328 334 335 336 340 341 342 343 344 345 349 349 350 348 356 343 324 120 162 221 238 214 132 185 193 214 217 211 164 192 218 164 114 121 116 153 204 290 321 217 206 214 206 210 177 182 222
333 331 336 338 339 341 344 343 347 346 348 352 359 1 350 358 47 33 32 311 315 261 314 283 177 195 200 178 221 207 208 167 114 120 137 128 278 271 259 266 305 310 244 186 203 213 202
329 333 337 337 341 343 343 345 347 345 350 350 343 316 6 11 61 348 321 303 283 327 296 277 256 205 185 177 197 219 204 153 135 151 177 169 225 280 284 264 222 199 234 231 137 185 221
334 336 338 339 342 342 341 341 340 343 350 353 355 355 20 53 77 63 347 297 309 322 273 344 282 96 70 209 249 267 219 172 170 185 207 194 231 228 253 306 12 324 327 243 258 217 214
335 335 338 340 340 339 337 336 338 341 357 0 11 34 15 338 3 353 309 303 304 319 342 2 296 89 39 282 299 220 245 232 168 217 151 162 252 257 264 268 276 270 269 279 257 259 215
338 338 339 339 339 336 333 333 336 339 358 17 27 12 350 295 298 313 311 263 278 306 264 255 235 290 293 237 231 260 229 199 213 203 168 181 266 271 264 258 247 252 254 245 241 255 253
342 340 339 338 336 332 333 333 336 331 344 355 332 271 258 282 305 306 276 296 297 296 263 250 252 276 258 256 270 256 256 256 235 180 190 192 236 245 265 287 197 241 238 229 91 51 359
342 339 340 339 336 337 337 338 336 326 312 292 291 308 263 300 280 290 281 294 298 304 287 279 279 272 249 280 301 283 249 236 227 227 177 173 217 230 276 294 187 139 60 71 98 62 37
342 342 342 342 344 343 339 338 336 324 299 295 287 290 218 267 263 293 303 310 304 309 292 307 269 283 295 295 298 308 259 176 232 230 196 179 191 265 252 265 116 115 36 9 12 48 21
343 345 346 347 343 338 333 332 335 327 306 292 290 274 259 273 250 298 299 305 312 332 315 302 325 328 320 275 245 237 221 192 188 106 179 177 196 228 290 243 150 44 325 325 238 49 1
346 348 346 345 342 337 335 337 342 355 334 317 302 304 253 257 287 308 299 313 285 284 299 282 328 323 352 296 279 297 223 235 145 138 154 179 202 216 227 278 121 347 327 314 90 347 343
351 350 348 346 342 342 351 2 24 35 36 46 36 9 276 274 307 306 332 316 317 284 306 327 333 347 321 323 313 311 310 4 32 48 109 123 257 246 250 218 73 344 27 67 3 14 7
354 351 349 347 348 6 20 23 28 70 96 85 71 15 336 258 293 336 335 2 351 355 309 308 291 294 317 319 341 320 350 340 341 51 2 45 329 285 3 34 319 68 76 55 28 9 20